Content
SEND FEEDBACK

Daily
Averages
Monthly
Summary
Ireland

DUBLIN, IRELAND


Home > Europe > Ireland
Elevation: 279 feet     Latitude: 53 26N     Longitude: 006 15W

WEATHER
 
SELECT A DAY
Number of Records: 323,103;   Date Range: 7/1/96 - 8/20/14
 
SHARE

PRINT THIS DATA

[ ← Previous Day ]
WEATHER ALMANAC - MARCH 5, 2013
[ Next Day → ]
[ °C ]   °F
Weather ElementAverageHighLow
Temperature38.1 °F48.2 °F (12:00 pm)26.6 °F (3:00 am)
Dewpoint34.8 °F39.2 °F (9:30 am)26.6 °F (3:00 am)
Humidity88.2 %100 % (1:00 am)57 % (12:00 pm)
Barometer29.62 in29.71 in (12:00 am)29.56 in (5:00 pm)
Wind Speed7.8 mph13.8 mph (3:00 pm)
Weather ElementAverage
Visibility3.5 mi
Wind DirectionENE (78.8 °)

Weather ElementTotal
Precipitation---
Heating Degree Days27.6 (Base 65)
Averaged from 50 records on March 5, 2013
WEATHER CONDITIONS BREAKOUT
WIND DIRECTION BREAKOUT
WEATHER BY HOUR - MARCH 5, 2013
[ °C ]   °F
Local TimeTemperatureDewpointHumidityBarometerVisibilityWind DirectionWind SpeedGust SpeedPrecipitationEventsConditions
12:00 AM30.2 °F28.4 °F93 %29.71 in5.0 miCalmPartly Cloudy
12:30 AM30.2 °F28.4 °F93 %29.71 in5.0 miVariable2.3 mphPartly Cloudy
1:00 AM28.4 °F28.4 °F100 %29.71 in4.3 miVariable3.5 mphPartly Cloudy
1:30 AM28.4 °F28.4 °F100 %29.68 in4.3 miVariable3.5 mphPartly Cloudy
2:00 AM28.4 °F28.4 °F100 %29.68 in4.3 miVariable1.2 mphPartly Cloudy
2:30 AM28.4 °F28.4 °F100 %29.68 in4.3 miNorth (360°)2.3 mphPartly Cloudy
3:00 AM26.6 °F26.6 °F100 %29.68 in4.3 miNorth (360°)2.3 mphPartly Cloudy
3:30 AM26.6 °F26.6 °F100 %29.68 in4.3 miNNE (20°)3.5 mphPartly Cloudy
4:00 AM26.6 °F26.6 °F100 %29.68 in4.3 miNorth (350°)2.3 mphPartly Cloudy
4:30 AM26.6 °F26.6 °F100 %29.68 in4.3 miNorth (10°)2.3 mphPartly Cloudy
5:00 AM26.6 °F26.6 °F100 %29.65 in4.3 miNNE (30°)4.6 mphPartly Cloudy
5:30 AM30.2 °F30.2 °F100 %29.65 in4.3 miNE (40°)5.8 mphPartly Cloudy
6:00 AM28.4 °F28.4 °F100 %29.65 in4.3 miNE (50°)6.9 mphPartly Cloudy
6:00 AM27.0 °F27.0 °F100 %29.68 in4.0 miNE (50°)6.7 mphMist
6:30 AM28.4 °F28.4 °F100 %29.65 in3.7 miENE (60°)6.9 mphPartly Cloudy
7:00 AM32.0 °F30.2 °F93 %29.65 in2.2 miNE (40°)5.8 mphPartly Cloudy
7:30 AM33.8 °F32.0 °F93 %29.65 in1.2 miNE (50°)6.9 mphPartly Cloudy
8:00 AM33.8 °F32.0 °F93 %29.65 in0.9 miNE (40°)6.9 mphPartly Cloudy
8:30 AM35.6 °F35.6 °F100 %29.65 in4.3 miENE (70°)6.9 mphPartly Cloudy
9:00 AM37.4 °F37.4 °F100 %29.65 in5.0 miEast (90°)6.9 mphPartly Cloudy
9:30 AM41.0 °F39.2 °F93 %29.65 in5.0 miEast (90°)6.9 mphPartly Cloudy
10:30 AM44.6 °F39.2 °F81 %29.65 in5.0 miEast (90°)9.2 mphPartly Cloudy
11:00 AM46.4 °F39.2 °F76 %29.62 in5.0 miEast (90°)10.4 mphPartly Cloudy
11:30 AM46.4 °F39.2 °F76 %29.62 in4.3 miEast (80°)10.4 mphPartly Cloudy
12:00 PM48.2 °F37.4 °F66 %29.62 in4.3 miEast (90°)10.4 mphPartly Cloudy
12:00 PM47.0 °F36.0 °F57 %29.65 in4.0 miEast (90°)11.2 mphMist
12:30 PM46.4 °F35.6 °F66 %29.62 in4.3 miEast (90°)10.4 mphPartly Cloudy
1:00 PM46.4 °F35.6 °F66 %29.62 in4.3 miEast (90°)11.5 mphMostly Cloudy
1:30 PM46.4 °F35.6 °F66 %29.62 in5.0 miEast (90°)11.5 mphMostly Cloudy
2:00 PM46.4 °F37.4 °F71 %29.59 in5.0 miENE (70°)11.5 mphMostly Cloudy
2:30 PM46.4 °F39.2 °F76 %29.59 in3.1 miEast (80°)12.7 mphScattered Clouds
3:00 PM44.6 °F39.2 °F81 %29.59 inEast (90°)13.8 mphScattered Clouds
3:30 PM46.4 °F39.2 °F76 %29.59 inEast (80°)11.5 mphMostly Cloudy
4:00 PM44.6 °F39.2 °F81 %29.59 in2.2 miENE (70°)11.5 mphMostly Cloudy
4:30 PM42.8 °F39.2 °F87 %29.59 in1.6 miENE (70°)11.5 mphMostly Cloudy
5:00 PM42.8 °F39.2 °F87 %29.56 in1.6 miENE (60°)10.4 mphMostly Cloudy
5:30 PM41.0 °F37.4 °F87 %29.56 in1.6 miENE (70°)10.4 mphScattered Clouds
6:00 PM41.0 °F37.4 °F87 %29.56 in1.6 miENE (60°)9.2 mphMostly Cloudy
6:00 PM41.0 °F38.0 °F85 %29.59 in2.0 miENE (60°)8.9 mphMist
6:30 PM41.0 °F39.2 °F93 %29.56 inEast (80°)8.1 mphMostly Cloudy
7:00 PM41.0 °F39.2 °F93 %29.56 in2.8 miENE (70°)10.4 mphMostly Cloudy
7:30 PM41.0 °F39.2 °F93 %29.56 in2.8 miEast (80°)8.1 mphMostly Cloudy
8:00 PM42.8 °F39.2 °F87 %29.56 in2.8 miEast (80°)9.2 mphLight Drizzle
8:30 PM42.8 °F39.2 °F87 %29.56 in2.8 miEast (80°)9.2 mphMostly Cloudy
9:00 PM42.8 °F39.2 °F87 %29.56 in2.8 miEast (90°)8.1 mphMostly Cloudy
9:30 PM42.8 °F39.2 °F87 %29.56 in2.5 miEast (80°)10.4 mphMostly Cloudy
10:00 PM42.8 °F39.2 °F87 %29.56 in2.5 miENE (60°)9.2 mphMostly Cloudy
10:30 PM42.8 °F39.2 °F87 %29.56 in2.5 miENE (70°)9.2 mphMostly Cloudy
11:00 PM42.8 °F39.2 °F87 %29.56 in2.2 miENE (70°)8.1 mphMostly Cloudy
11:30 PM41.0 °F39.2 °F93 %29.56 in2.2 miNE (50°)9.2 mphMostly Cloudy
Hourly data recorded from EIDW, located miles away from Dublin, Ireland







STORIES FROM OUR PARTNERS